Ouarzazate, Morocco

9:02 AM WEST on August 22, 2017 (GMT +0100)
Ouarzazate

Weather History for GMMZ - February, 2014

Change the Weather History Date:

Wednesday, February 12, 2014

  Actual Average Record
Temperature  
Mean Temperature 58 °F -  
Max Temperature 73 °F 69 °F - ()
Min Temperature 42 °F 42 °F - ()
Degree Days  
Heating Degree Days 8    
Growing Degree Days 8 (Base 50)    
Moisture  
Dew Point 17 °F    
Average Humidity 20    
Maximum Humidity 39    
Minimum Humidity 4    
Precipitation  
Precipitation 0.00 in 0.01 in - ()
Sea Level Pressure  
Sea Level Pressure 30.23 in    
Wind  
Wind Speed 3 mph ()    
Max Wind Speed 8 mph    
Max Gust Speed -    
Visibility 12.0 miles    
Events      
T = Trace of Precipitation, MM = Missing Value Source: Averaged Metar Reports

Daily Weather History Graph

Daily Weather History Graph

Search for Another Location

Airport or City:

Trip Planner

Search our weather history database for the weather conditions in past years. The results will help you decide how hot, cold, wet, or windy it might be!

Date:

Astronomy

Feb. 12, 2014 Rise Set
Actual Time 7:11 AM WET 6:12 PM WET
Civil Twilight 6:46 AM WET 6:37 PM WET
Nautical Twilight 6:18 AM WET 7:05 PM WET
Astronomical Twilight 5:49 AM WET 7:34 PM WET
Moon 4:17 PM WET (2/12) 5:15 AM WET (2/12)
Length of Visible Light 11h 50m
Length of Day
11h 01m
Waxing Gibbous, 94% of the Moon is Illuminated
Feb 12
Waxing Gibbous
Feb 14
Full
Feb 22
Last Quarter
Mar 1
New
Mar 8
First Quarter

Hourly Weather History & Observations

Time (WET) Temp. Dew Point Humidity Pressure Visibility Wind Dir Wind Speed Gust Speed Precip Events Conditions
12:00 AM 56 °F 24 °F 17%  in 12 mi WNW 5.8 mph - -   Clear
12:00 AM 57.2 °F 24.8 °F 29% 30.24 in - WNW 5.8 mph - N/A   Clear
1:00 AM 53.6 °F 23.0 °F 30% 30.24 in - Variable 2.3 mph - N/A   Clear
2:00 AM 51.8 °F 19.4 °F 28% 30.24 in - Variable 3.5 mph - N/A   Clear
3:00 AM 49 °F 18 °F 18%  in 12 mi SW 2.3 mph - -  
3:00 AM 48.2 °F 19.4 °F 32% 30.21 in - Variable 2.3 mph - N/A   Clear
4:00 AM 50.0 °F 17.6 °F 28% 30.21 in - SW 5.8 mph - N/A   Clear
6:00 AM 45 °F 17 °F 20%  in 12 mi Calm Calm - -  
6:00 AM 44.6 °F 17.6 °F 34% 30.21 in - Calm Calm - N/A   Clear
7:00 AM 44.6 °F 19.4 °F 37% 30.21 in - Variable 1.2 mph - N/A   Clear
8:00 AM 42.8 °F 19.4 °F 39% 30.24 in - Calm Calm - N/A   Clear
9:00 AM 49 °F 23 °F 23%  in 12 mi SW 3.5 mph - -  
9:00 AM 50.0 °F 23.0 °F 35% 30.24 in - Variable 2.3 mph - N/A   Clear
10:00 AM 55.4 °F 23.0 °F 29% 30.27 in - Calm Calm - N/A   Clear
11:00 AM 59.0 °F 23.0 °F 25% 30.27 in - Calm Calm - N/A   Clear
12:00 PM 63 °F 20 °F 10%  in 12 mi North 2.3 mph - -  
12:00 PM 62.6 °F 21.2 °F 20% 30.24 in - Variable 1.2 mph - N/A   Clear
1:00 PM 66.2 °F 17.6 °F 15% 30.21 in - Variable 2.3 mph - N/A   Clear
3:00 PM 70 °F 11 °F 4%  in 12 mi East 3.5 mph - -  
3:00 PM 69.8 °F 10.4 °F 10% 30.18 in - Variable 3.5 mph - N/A   Clear
4:00 PM 71.6 °F 10.4 °F 9% 30.15 in - East 4.6 mph - N/A   Clear
5:00 PM 73.4 °F 8.6 °F 8% 30.15 in - Variable 2.3 mph - N/A   Clear
6:00 PM 72 °F 8 °F 4%  in 12 mi SSE 2.3 mph - -  
6:00 PM 71.6 °F 6.8 °F 8% 30.18 in - Variable 2.3 mph - N/A   Clear
7:00 PM 66.2 °F 14.0 °F 13% 30.21 in - Variable 2.3 mph - N/A   Clear
8:00 PM 66.2 °F 15.8 °F 14% 30.24 in - SE 8.1 mph - N/A   Clear
9:00 PM 64 °F 15 °F 7%  in 12 mi SE 5.8 mph - -  
9:00 PM 64.4 °F 15.8 °F 15% 30.27 in - SE 5.8 mph - N/A   Clear
10:00 PM 59.0 °F 15.8 °F 19% 30.30 in - ENE 4.6 mph - N/A   Clear
11:00 PM 57.2 °F 14.0 °F 18% 30.33 in - NE 5.8 mph - N/A   Clear